Flag for Germany Weather past 2 weeks in Nienburg (Weser), Lower Saxony, Germany

Now
64 °F

Mild.


Feels Like: 64 °F
Forecast: 48 / 60 °F
Wind: 15 mph from Northwest

Location: Wunstorf Airport

Current Time: Sep 21, 2014 at 6:16:49 PM

Latest Report: Sep 21, 2014 at 5:20 PM


Visibility: N/A

Pressure: 29.95 "Hg

Humidity: 56%

Dew point: 48 °F

Location of Nienburg (Weser)Location

Historic Weather in Nienburg (Weser) — Graph

°F

Nienburg (Weser) temperature yesterday

Maximum temperature yesterday: 70 °F (at 3:20 PM)
Minimum temperature yesterday: 61 °F (at 3:20 AM)
Average temperature yesterday: 64 °F

Past Weeks' High & Low Weather Summary

 TemperatureHumidityPressure
High77 °F (Sep 6, 4:20 PM)100% (Sep 7, 3:20 AM)30.21 "Hg (Sep 7, 3:20 AM)
Low48 °F (Sep 12, 4:20 AM)46% (Sep 21, 4:20 PM)29.86 "Hg (Sep 6, 4:20 PM)
Average62 °F84%30.03 "Hg
* Reported Sep 6 4:20 PM — Sep 21 4:20 PM, Nienburg (Weser), Weather by CustomWeather, © 2014

Note: Actual official high and low records may vary slightly from our data, if they occured in-between our weather recording intervals... More about our weather records

Advertising

Nienburg (Weser) weather history for previous 24 hours

 ConditionsComfort  
Time TempWeatherWind HumidityBarometerVisibility
4:20 PM
Sep 21
66 °FMild.15 mph46%29.95 "HgN/A
3:20 PM66 °FMild.15 mph52%29.95 "HgN/A
2:20 PM64 °FMild.14 mph64%29.95 "HgN/A
1:20 PM63 °FMild.10 mph77%29.95 "HgN/A
12:20 PM63 °FMild.9 mph83%29.95 "HgN/A
11:20 AM61 °FCool.8 mph94%29.95 "Hg6 mi
10:20 AM61 °FLight rain. Fog.9 mph94%29.92 "Hg2 mi
9:20 AM61 °FLight rain. Fog.6 mph94%29.92 "Hg1 mi
8:20 AM61 °FSprinkles. Fog.8 mph94%29.92 "Hg1 mi
7:46 AM61 °FFog.7 mph94%29.92 "Hg1 mi
7:20 AM61 °FFog.7 mph100%29.92 "Hg1 mi
6:47 AM61 °FFog.6 mph94%29.92 "Hg1 mi
6:20 AM61 °FFog.8 mph94%29.92 "Hg1 mi
5:20 AM59 °FCool.7 mph100%29.92 "Hg1 mi
4:20 AM61 °FCool.10 mph94%29.92 "Hg3 mi
3:20 AM63 °FMild.6 mph94%29.92 "Hg3 mi
2:20 AM63 °FMild.6 mph94%29.92 "Hg3 mi
1:20 AM63 °FMild.8 mph94%29.92 "Hg2 mi
12:20 AM63 °FMild.6 mph100%29.92 "Hg1 mi
11:20 PM
Sep 20
64 °FMild.6 mph94%29.92 "Hg2 mi
10:20 PM64 °FMild.7 mph88%29.92 "Hg2 mi
9:20 PM64 °FMild.6 mph88%29.92 "Hg2 mi
8:20 PM66 °FMild.6 mph88%29.92 "Hg2 mi
7:20 PM66 °FMild.3 mph88%29.89 "Hg3 mi
Weather by CustomWeather, © 2014

See weather overviewHow to use our weather pages